Location: Allison Elementary School
(34.0784°N, 117.7317°W)
Time: 10:43:48
(UTC+00:00)

ATLAS 5 CENTAUR R/B - Pass Details

Date: 15 November 2019
Orbit: 266 x 12999 km, 20.1° (Epoch: 09 December)

Event Time Altitude Azimuth Distance (km) Brightness Sun altitude
Rises 02:50:26 0° 236° (SW) 2,907 5.5 -25.4°
Reaches altitude 10° 02:52:09 10° 223° (SW) 2,407 4.7 -25.8°
Maximum altitude 02:57:17 33° 159° (SSE) 2,395 3.8 -26.8°
Enters shadow 03:01:13 27° 128° (SE) 3,546 4.4 -27.7°
